Buffalo, WY

1:56 PM MDT on September 24, 2017 (GMT -0600)
Johnson County

Weather History for KBYG - January, 2014

Change the Weather History Date:

Saturday, January 18, 2014

  Actual Average Record
Temperature  
Mean Temperature 36 °F 28 °F  
Max Temperature 44 °F 39 °F 56 °F (2005)
Min Temperature 28 °F 17 °F -1 °F (2012)
Degree Days  
Heating Degree Days 29 37  
Month to date heating degree days 661 672  
Since 1 July heating degree days 3459 3719  
Cooling Degree Days 0 0  
Month to date cooling degree days 0 0  
Year to date cooling degree days 0 0  
Moisture  
Dew Point 20 °F    
Average Humidity 46    
Maximum Humidity 63    
Minimum Humidity 28    
Precipitation  
Precipitation 0.00 in 0.02 in 0.10 in (2008)
Month to date precipitation 0.15 0.22  
Year to date precipitation 0.15 0.22  
Sea Level Pressure  
Sea Level Pressure 30.11 in    
Wind  
Wind Speed 12 mph (WNW)    
Max Wind Speed 36 mph    
Max Gust Speed 46 mph    
Visibility 10 miles    
Events      
T = Trace of Precipitation, MM = Missing Value Source: NWS Daily Summary

Daily Weather History Graph

Daily Weather History Graph

Search for Another Location

Airport or City:

Trip Planner

Search our weather history database for the weather conditions in past years. The results will help you decide how hot, cold, wet, or windy it might be!

Date:

Astronomy

Jan. 18, 2014 Rise Set
Actual Time 7:37 AM MST 4:57 PM MST
Civil Twilight 7:05 AM MST 5:29 PM MST
Nautical Twilight 6:29 AM MST 6:05 PM MST
Astronomical Twilight 5:55 AM MST 6:39 PM MST
Moon 7:50 PM MST (1/18) 8:31 AM MST (1/18)
Length of Visible Light 10h 23m
Length of Day
9h 19m
Waning Gibbous, 94% of the Moon is Illuminated
Jan 18
Waning Gibbous
Jan 23
Last Quarter
Jan 30
New
Feb 6
First Quarter
Feb 14
Full

Hourly Weather History & Observations

Time (MST) Temp. Windchill Dew Point Humidity Pressure Visibility Wind Dir Wind Speed Gust Speed Precip Events Conditions
12:53 AM 43.0 °F 32.5 °F 19.0 °F 38% 30.06 in 10.0 mi NNW 29.9 mph 46.0 mph N/A   Clear
1:53 AM 42.1 °F 31.7 °F 19.0 °F 40% 30.09 in 10.0 mi NNW 27.6 mph 39.1 mph N/A   Clear
2:53 AM 41.0 °F 31.6 °F 19.0 °F 41% 30.11 in 10.0 mi NNW 20.7 mph 40.3 mph N/A   Clear
3:53 AM 36.0 °F 26.7 °F 21.0 °F 55% 30.14 in 10.0 mi North 15.0 mph 26.5 mph N/A   Clear
4:53 AM 34.0 °F 22.1 °F 21.9 °F 61% 30.17 in 10.0 mi North 21.9 mph 33.4 mph N/A   Clear
5:53 AM 32.0 °F 19.5 °F 21.0 °F 64% 30.18 in 10.0 mi NNW 21.9 mph 33.4 mph N/A   Clear
6:53 AM 33.1 °F 23.0 °F 21.0 °F 61% 30.20 in 10.0 mi NNW 15.0 mph 25.3 mph N/A   Clear
7:53 AM 32.0 °F 21.2 °F 21.0 °F 64% 30.22 in 10.0 mi NNW 16.1 mph 24.2 mph N/A   Clear
8:53 AM 34.0 °F 26.6 °F 21.0 °F 59% 30.23 in 10.0 mi NNW 9.2 mph - N/A   Clear
9:53 AM 37.9 °F 30.9 °F 19.9 °F 48% 30.23 in 10.0 mi NW 10.4 mph 21.9 mph N/A   Clear
10:53 AM 39.9 °F 36.7 °F 21.0 °F 47% 30.23 in 10.0 mi North 4.6 mph - N/A   Clear
11:53 AM 41.0 °F - 21.0 °F 45% 30.19 in 10.0 mi Calm Calm - N/A   Clear
12:53 PM 42.1 °F 35.7 °F 23.0 °F 47% 30.15 in 10.0 mi SSE 11.5 mph - N/A   Clear
1:53 PM 42.1 °F 34.5 °F 23.0 °F 47% 30.11 in 10.0 mi South 15.0 mph - N/A   Clear
2:53 PM 41.0 °F 32.5 °F 24.1 °F 51% 30.07 in 10.0 mi SSE 17.3 mph - N/A   Clear
3:53 PM 39.9 °F 34.5 °F 25.0 °F 55% 30.08 in 10.0 mi SSE 8.1 mph - N/A   Clear
4:53 PM 37.0 °F 34.5 °F 24.1 °F 59% 30.07 in 10.0 mi SW 3.5 mph - N/A   Clear
5:53 PM 35.1 °F 31.0 °F 23.0 °F 61% 30.06 in 10.0 mi WSW 4.6 mph - N/A   Clear
6:53 PM 36.0 °F 33.3 °F 17.1 °F 46% 30.04 in 10.0 mi West 3.5 mph - N/A   Clear
7:53 PM 33.1 °F 28.7 °F 18.0 °F 54% 30.05 in 10.0 mi North 4.6 mph - N/A   Clear
8:53 PM 35.1 °F 26.9 °F 17.1 °F 48% 30.04 in 10.0 mi WSW 11.5 mph - N/A   Clear
9:53 PM 37.9 °F 32.7 °F 12.9 °F 36% 30.01 in 10.0 mi WSW 6.9 mph - N/A   Clear
10:53 PM 41.0 °F 36.4 °F 10.0 °F 28% 29.99 in 10.0 mi SSW 6.9 mph - N/A   Clear
11:53 PM 37.9 °F 31.5 °F 14.0 °F 38% 29.98 in 10.0 mi SW 9.2 mph - N/A   Clear